Regional Weather Roundup
Issued by NWS

Home | Current Version | Previous Version | Graphics & Text | Print | Product List | Glossary On
Versions: 1 2 3 4 5 6 7 8 9 10 11 12 13 14 15 16 17 18 19 20 21 22 23 24 25 26 27 28 29 30 31 32 33 34 35 36 37 38 39 40 41 42 43 44 45 46 47 48 49 50
000
ASUS43 KLOT 231402
RWRIL

ILLINOIS REGIONAL WEATHER ROUNDUP
NATIONAL WEATHER SERVICE CHICAGO/ROMEOVILLE IL
900 AM CDT THU MAR 23 2017

NOTE: "FAIR" INDICATES FEW OR NO CLOUDS BELOW 12,000 FEET WITH NO
SIGNIFICANT WEATHER AND/OR OBSTRUCTIONS TO VISIBILITY.

* THESE STATIONS ARE NOT UNDER NWS QUALITY CONTROL. THEY ALSO MAY NOT
  REPORT WEATHER SUCH AS PRECIPITATION OR FOG.

ILZ001-002-007-009-015-016-024-231500-
NORTHWEST ILLINOIS

CITY           SKY/WX    TMP DP  RH WIND       PRES   REMARKS
MOLINE         CLOUDY    37  22  54 SE14      30.29F WCI  28
STERLING*      CLOUDY    35  24  64 SE13G18   30.34F WCI  26
SAVANNA*       CLOUDY    36  23  59 SE12      30.32F WCI  28
$$

ILZ003-004-008-010-011-017-018-231500-
NORTH CENTRAL ILLINOIS

CITY           SKY/WX    TMP DP  RH WIND       PRES   REMARKS
ROCKFORD       CLOUDY    35  21  56 SE16      30.38S WCI  25
FREEPORT*      CLOUDY    33  22  63 SE15      30.35F WCI  23
ROCHELLE*      CLOUDY    34  23  65 SE15      30.37F WCI  24
DE KALB*       CLOUDY    33  22  65 SE14      30.37F WCI  23
PERU*          CLOUDY    34  22  61 SE18      30.37S WCI  23
$$

ILZ005-006-012>014-019>023-231500-
NORTHEAST ILLINOIS

CITY           SKY/WX    TMP DP  RH WIND       PRES   REMARKS
CHICAGO-OHARE  CLOUDY    35  19  52 SE14      30.40S WCI  26
CHICAGO-MIDWAY CLOUDY    34  19  54 SE12G20   30.41F WCI  25
AURORA         CLOUDY    35  22  58 SE12      30.39R WCI  27
LANSING*       CLOUDY    32  22  66 SE13      30.42F WCI  22
JOLIET*        CLOUDY    34  24  66 SE10      30.40S WCI  26
WAUKEGAN       CLOUDY    33  23  66 SE14      30.40S WCI  23
DUPAGE AIRPORT CLOUDY    34  21  59 SE12      30.38F WCI  25
KANKAKEE*      CLOUDY    33  23  66 SE15      30.41S WCI  23
WHEELING       CLOUDY    34  19  54 SE13      30.42S WCI  25
MORRIS*        CLOUDY    34  22  61 SE13      30.39R WCI  25
ROMEOVILLE*    CLOUDY    33  24  72 SE13      30.39S WCI  23
NORTHERLY ISL    N/A     33  21  61 SE15        N/A  WCI  23
$$

LMZ740>746-231500-
SOUTHERN LAKE MICHIGAN

STATION/POSITION SKY/WX   TEMP    WIND        PRES    VSBY  WAVE
                          AIR SEA DIR/SP/G                  HT/PER
                          (F)     (DEG/KT/KT) (MB)    (MI)  (FT/S)
HARRISON CRIB              33     140/ 18/ 20   N/A
BURNHAM HARBOR             33     110/ 13/ 13   N/A
CALUMET HARBOR             32     120/  9/ 15 1029.1F
BURNS HARBOR               32     130/  9/ 14 1030.1F
MICHIGAN CITY              30     120/ 12/ 16   N/A
$$

ILZ025>027-034>036-040-047-049-050-058-095>099-231500-
WEST-CENTRAL ILLINOIS

CITY           SKY/WX    TMP DP  RH WIND       PRES   REMARKS
QUINCY         LGT RAIN  36  31  82 SE15      30.26S WCI  27
GALESBURG*     CLOUDY    37  24  60 SE14      30.29  WCI  28
MACOMB*        CLOUDY    35  31  88 SE15      30.31F WCI  25
JACKSONVILLE*  LGT RAIN  35  31  87 SE13G21   30.32S WCI  26
PITTSFIELD*    CLOUDY    36  32  85 SE14      30.30S WCI  27
$$

ILZ028>032-037-038-041>044-048-051>054-059>061-231500-
CENTRAL ILLINOIS

CITY           SKY/WX    TMP DP  RH WIND       PRES   REMARKS
PONTIAC        CLOUDY    33  26  77 SE15      30.39F WCI  23
BLOOMINGTON    PTSUNNY   35  23  61 SE13      30.37S WCI  26
DECATUR        CLOUDY    37  21  52 SE10      30.37S WCI  30
PEORIA         CLOUDY    37  23  56 SE12      30.34F WCI  29
LACON*         MOSUNNY   34  26  71 SE12      30.36S WCI  26
LINCOLN*       LGT RAIN  37  26  63 SE7       30.37S WCI  32
SPRINGFIELD    LGT RAIN  37  28  70 SE10      30.35S WCI  30
TAYLORVILLE    DRIZZLE   35  26  70 SE9       30.36S WCI  28
$$

ILZ033-039-045-046-055>057-062-063-231500-
EAST-CENTRAL ILLINOIS

CITY           SKY/WX    TMP DP  RH WIND       PRES   REMARKS
CHAMPAIGN      CLOUDY    35  21  56 SE15      30.38R WCI  25
RANTOUL*       CLOUDY    35  25  67 SE13      30.39S WCI  26
MATTOON        CLOUDY    37  22  54 SE10      30.37R WCI  30
$$

ILZ079-100>102-231500-
SOUTHWEST ILLINOIS

CITY           SKY/WX    TMP DP  RH WIND       PRES   REMARKS
ALTON          LGT RAIN  36  30  80 E9        30.33R WCI  29
BELLEVILLE     PTSUNNY   36  35  95 SE10      30.32S WCI  29
CAHOKIA*       CLOUDY    38  31  76 SE13      30.31F WCI  30
SPARTA*        TSTM      35  32  89 SE9G18    30.32F WCI  28
$$

ILZ064>066-069>071-074>076-080>082-084>086-088>090-092>094-231500-
SOUTH-CENTRAL ILLINOIS

CITY           SKY/WX    TMP DP  RH WIND       PRES   REMARKS
CARBONDALE     LGT RAIN  36  33  89 E8        30.36R WCI  30
CAIRO*         CLOUDY    40  31  69 E8        30.33S
EFFINGHAM*     CLOUDY    37  25  61 E10       30.40R WCI  30
MARION         LGT RAIN  37  32  81 NE6       30.37R WCI  33
MT. VERNON     LGT RAIN  36  29  75 E7        30.38R WCI  30
CENTRALIA*     LGT RAIN  35  31  84 E8        30.32F WCI  29
SALEM*         LGT RAIN  36  29  77 SE6       30.37R WCI  31
METROPOLIS*    LGT RAIN  37  33  87 E8        30.34F WCI  30
$$

ILZ067-068-072-073-078-083-087-091-231500-
SOUTHEAST ILLINOIS

CITY           SKY/WX    TMP DP  RH WIND       PRES   REMARKS
LAWRENCEVILLE  MOSUNNY   39  22  50 E12       30.39F WCI  32
FLORA*         CLOUDY    37  27  67 SE3       30.39R
FAIRFIELD*     LGT RAIN  37  28  71 SE3       30.38S
HARRISBURG*    RAIN      36  31  82 NE3       30.39R
ROBINSON*      CLOUDY    37  20  52 SE14      30.40S WCI  28
CARMI*         CLOUDY    38  26  62 SE7       30.38R WCI  33
$$

ABBREVIATIONS USED IN REMARKS
   TC - TEMPERATURE IN CELSIUS
  WCI - WIND CHILL INDEX
   HX - HEAT INDEX
  VSB - VISIBILITY
$$





USA.gov is the U.S. government's official web portal to all federal, state and local government web resources and services.